Location: K�ln
(50.9455°N, 6.9544°E)
Time: 09:21:15
(UTC+01:00)

ISS - Visible Passes

Search period start: 17 February 2019 00:00
Search period end: 27 February 2019 00:00
Orbit: 403 x 411 km, 51.6° (Epoch: 17 February)

Date Brightness Start Highest point End Pass type
(mag) Time Alt. Az. Time Alt. Az. Time Alt. Az.
23 Feb -0.8 06:34:46 10° SSE 06:36:15 13° SE 06:37:44 10° ESE visible
25 Feb -1.6 06:26:47 10° SSW 06:29:27 23° SE 06:32:07 10° E visible
26 Feb -1.1 05:36:07 10° S 05:38:08 15° SE 05:40:08 10° ESE visible
